�������l�o���
Date,Time,MP-1(��Sv/h),MP-2(��Sv/h),MP-3(��Sv/h),MP-4(��Sv/h),MP-5(��Sv/h),MP-6(��Sv/h),MP-7(��Sv/h),����,����(m/s),���J
2023/02/06,00:00,0.156,0.141,0.220,0.215,0.214,0.125,0.079,���k��,1.9,��
2023/02/06,00:10,0.158,0.142,0.219,0.216,0.214,0.125,0.079,���k��,1.8,��
2023/02/06,00:20,0.156,0.143,0.220,0.216,0.214,0.124,0.079,���k��,1.7,��
2023/02/06,00:30,0.156,0.142,0.219,0.215,0.214,0.125,0.079,���k��,1.5,��
2023/02/06,00:40,0.157,0.141,0.220,0.216,0.215,0.125,0.078,���k��,1.3,�L
2023/02/06,00:50,0.156,0.142,0.220,0.216,0.214,0.124,0.078,���k��,0.9,��
2023/02/06,01:00,0.156,0.143,0.219,0.216,0.214,0.124,0.078,���k��,0.6,��
2023/02/06,01:10,0.157,0.142,0.219,0.216,0.215,0.125,0.078,-,CALM,��
2023/02/06,01:20,0.157,0.142,0.219,0.216,0.214,0.124,0.078,-,CALM,�L
2023/02/06,01:30,0.157,0.142,0.220,0.217,0.214,0.125,0.079,-,CALM,��
2023/02/06,01:40,0.157,0.142,0.221,0.216,0.214,0.124,0.079,-,CALM,�L
2023/02/06,01:50,0.157,0.142,0.220,0.216,0.215,0.124,0.079,-,CALM,��
2023/02/06,02:00,0.157,0.143,0.220,0.216,0.213,0.124,0.080,-,CALM,�L
2023/02/06,02:10,0.156,0.142,0.220,0.216,0.214,0.124,0.079,-,CALM,��
2023/02/06,02:20,0.157,0.143,0.219,0.217,0.213,0.124,0.079,-,CALM,��
2023/02/06,02:30,0.157,0.141,0.220,0.216,0.214,0.125,0.079,-,CALM,��
2023/02/06,02:40,0.157,0.142,0.220,0.216,0.214,0.125,0.079,-,CALM,��
2023/02/06,02:50,0.156,0.142,0.220,0.215,0.215,0.124,0.079,-,CALM,��
2023/02/06,03:00,0.157,0.142,0.221,0.216,0.214,0.125,0.079,���k��,0.6,��
2023/02/06,03:10,0.157,0.143,0.219,0.217,0.214,0.124,0.079,���k��,0.6,�L
2023/02/06,03:20,0.156,0.143,0.221,0.217,0.214,0.124,0.080,�k��,0.6,��
2023/02/06,03:30,0.157,0.143,0.220,0.216,0.214,0.126,0.079,-,CALM,�L
2023/02/06,03:40,0.158,0.143,0.221,0.216,0.215,0.125,0.079,��,0.6,��
2023/02/06,03:50,0.156,0.142,0.220,0.215,0.213,0.124,0.080,���k��,0.6,��
2023/02/06,04:00,0.157,0.141,0.219,0.217,0.214,0.124,0.079,���k��,1.0,��
2023/02/06,04:10,0.156,0.143,0.220,0.216,0.215,0.125,0.079,�k��,1.3,�L
2023/02/06,04:20,0.156,0.142,0.219,0.216,0.215,0.125,0.080,���k��,1.9,�L
2023/02/06,04:30,0.156,0.143,0.220,0.216,0.214,0.125,0.079,�k��,1.4,��
2023/02/06,04:40,0.158,0.142,0.220,0.216,0.215,0.125,0.079,���k��,2.6,��
2023/02/06,04:50,0.156,0.143,0.220,0.217,0.215,0.124,0.080,���k��,3.0,��
2023/02/06,05:00,0.156,0.142,0.219,0.216,0.214,0.125,0.079,���k��,2.5,�L
2023/02/06,05:10,0.157,0.142,0.220,0.215,0.214,0.125,0.079,���k��,3.5,��
2023/02/06,05:20,0.157,0.143,0.219,0.215,0.213,0.124,0.080,���k��,3.6,�L
2023/02/06,05:30,0.157,0.142,0.220,0.217,0.215,0.124,0.080,��,3.0,�L
2023/02/06,05:40,0.157,0.142,0.219,0.217,0.213,0.125,0.079,��,3.2,��
2023/02/06,05:50,0.156,0.143,0.219,0.216,0.214,0.125,0.079,���쐼,2.8,��
2023/02/06,06:00,0.157,0.143,0.221,0.216,0.215,0.124,0.079,�쐼,2.4,��
2023/02/06,06:10,0.157,0.141,0.220,0.216,0.215,0.125,0.079,���쐼,2.3,��
2023/02/06,06:20,0.157,0.142,0.220,0.217,0.215,0.124,0.080,��,5.0,��
2023/02/06,06:30,0.156,0.143,0.220,0.216,0.214,0.125,0.079,��,6.7,��
2023/02/06,06:40,0.157,0.142,0.220,0.216,0.214,0.124,0.079,��,7.0,��
2023/02/06,06:50,0.156,0.143,0.219,0.216,0.214,0.125,0.079,��,6.5,��
2023/02/06,07:00,0.157,0.142,0.219,0.216,0.214,0.124,0.080,��,7.1,��
2023/02/06,07:10,0.157,0.142,0.220,0.217,0.214,0.125,0.079,���쐼,6.3,��
2023/02/06,07:20,0.156,0.142,0.218,0.216,0.214,0.124,0.079,��,4.3,��
2023/02/06,07:30,0.157,0.143,0.218,0.216,0.214,0.124,0.080,��,5.3,��
2023/02/06,07:40,0.158,0.142,0.219,0.215,0.214,0.125,0.078,��,4.7,��
2023/02/06,07:50,0.158,0.142,0.219,0.216,0.214,0.125,0.079,���쐼,3.4,��
2023/02/06,08:00,0.156,0.142,0.219,0.215,0.214,0.125,0.079,���쐼,3.1,��
2023/02/06,08:10,0.157,0.142,0.219,0.215,0.215,0.124,0.079,���쐼,4.0,��
2023/02/06,08:20,0.156,0.142,0.219,0.215,0.214,0.124,0.078,���쐼,3.2,��
2023/02/06,08:30,0.157,0.142,0.219,0.216,0.214,0.124,0.079,���쐼,1.3,��
2023/02/06,08:40,0.157,0.142,0.220,0.215,0.214,0.125,0.080,��,1.1,��
2023/02/06,08:50,0.156,0.142,0.218,0.214,0.213,0.124,0.079,���k��,2.4,��
2023/02/06,09:00,0.157,0.143,0.218,0.214,0.213,0.124,0.078,���k��,2.0,��
2023/02/06,09:10,0.157,0.142,0.219,0.214,0.215,0.124,0.078,��,2.1,��
2023/02/06,09:20,0.157,0.142,0.219,0.216,0.214,0.124,0.079,��,2.0,��
2023/02/06,09:30,0.157,0.142,0.219,0.213,0.214,0.123,0.078,��,1.4,��
2023/02/06,09:40,0.156,0.141,0.218,0.214,0.214,0.124,0.078,��,1.3,��
2023/02/06,09:50,0.155,0.142,0.220,0.214,0.213,0.123,0.079,���k��,1.2,��
2023/02/06,10:00,0.157,0.141,0.218,0.215,0.214,0.123,0.079,-,CALM,��
2023/02/06,10:10,0.155,0.142,0.218,0.215,0.214,0.123,0.078,���k��,3.2,��
2023/02/06,10:20,0.156,0.141,0.218,0.214,0.215,0.124,0.078,�k��,3.5,��
2023/02/06,10:30,0.155,0.141,0.220,0.215,0.213,0.123,0.078,�k�k��,1.7,��
2023/02/06,10:40,0.155,0.142,0.219,0.214,0.213,0.124,0.079,���k��,1.0,��
2023/02/06,10:50,0.155,0.141,0.219,0.215,0.214,0.123,0.080,���k��,2.1,��
2023/02/06,11:00,0.156,0.142,0.218,0.214,0.215,0.124,0.079,���k��,2.8,��
2023/02/06,11:10,0.154,0.141,0.219,0.216,0.214,0.124,0.078,���k��,2.5,��
2023/02/06,11:20,0.156,0.141,0.218,0.214,0.215,0.124,0.078,�k��,2.5,��
2023/02/06,11:30,0.154,0.141,0.218,0.216,0.213,0.123,0.079,�쓌,2.1,��
2023/02/06,11:40,0.156,0.141,0.218,0.213,0.216,0.125,0.079,���쓌,2.5,��
2023/02/06,11:50,0.156,0.141,0.217,0.215,0.213,0.124,0.079,��,1.9,��
2023/02/06,12:00,0.156,0.142,0.218,0.215,0.215,0.124,0.078,���쓌,2.3,��
2023/02/06,12:10,0.157,0.141,0.219,0.214,0.213,0.124,0.079,���쓌,1.7,��
2023/02/06,12:20,0.154,0.141,0.218,0.215,0.213,0.125,0.078,�k�k��,1.5,��
2023/02/06,12:30,0.156,0.141,0.219,0.214,0.214,0.124,0.079,���k��,4.3,��
2023/02/06,12:40,0.155,0.142,0.217,0.216,0.212,0.124,0.078,���k��,7.0,��
2023/02/06,12:50,0.155,0.142,0.219,0.215,0.214,0.123,0.078,�k��,9.5,��
2023/02/06,13:00,0.156,0.143,0.218,0.215,0.212,0.124,0.078,�k��,8.5,��
2023/02/06,13:10,0.155,0.141,0.219,0.214,0.214,0.123,0.078,�k��,7.3,��
2023/02/06,13:20,0.156,0.141,0.218,0.216,0.214,0.124,0.078,���k��,9.0,��
2023/02/06,13:30,0.156,0.141,0.220,0.215,0.214,0.124,0.078,�k��,7.7,��
2023/02/06,13:40,0.155,0.142,0.218,0.215,0.214,0.124,0.079,�k��,7.1,��
2023/02/06,13:50,0.155,0.141,0.219,0.214,0.213,0.123,0.078,���k��,6.7,��
2023/02/06,14:00,0.155,0.142,0.218,0.214,0.215,0.124,0.079,���k��,7.3,��
2023/02/06,14:10,0.156,0.142,0.218,0.216,0.212,0.124,0.079,���k��,9.2,��
2023/02/06,14:20,0.154,0.142,0.219,0.213,0.215,0.124,0.078,���k��,9.0,��
2023/02/06,14:30,0.155,0.141,0.220,0.216,0.214,0.124,0.078,���k��,7.8,��
2023/02/06,14:40,0.157,0.142,0.220,0.215,0.214,0.123,0.079,�k��,7.7,��
2023/02/06,14:50,0.156,0.143,0.219,0.215,0.214,0.123,0.079,���k��,7.0,��
2023/02/06,15:00,0.157,0.141,0.219,0.217,0.214,0.125,0.078,���k��,5.8,��
2023/02/06,15:10,0.156,0.142,0.220,0.216,0.215,0.123,0.079,���k��,6.8,��
2023/02/06,15:20,0.156,0.142,0.219,0.216,0.214,0.124,0.078,�k��,4.5,��
2023/02/06,15:30,0.156,0.143,0.219,0.217,0.215,0.123,0.078,�k�k��,4.4,��
2023/02/06,15:40,0.156,0.141,0.220,0.216,0.214,0.124,0.079,�k,4.0,��
2023/02/06,15:50,0.156,0.142,0.220,0.217,0.214,0.124,0.079,�k,4.3,��
2023/02/06,16:00,0.157,0.142,0.219,0.216,0.216,0.124,0.078,�k,3.6,��
2023/02/06,16:10,0.156,0.142,0.220,0.216,0.214,0.126,0.078,�k,3.6,��
2023/02/06,16:20,0.157,0.142,0.220,0.216,0.216,0.125,0.079,�k,3.0,��
2023/02/06,16:30,0.157,0.141,0.220,0.217,0.215,0.124,0.079,�k,2.0,��
2023/02/06,16:40,0.156,0.142,0.221,0.216,0.215,0.126,0.078,�k,2.9,��
2023/02/06,16:50,0.156,0.142,0.220,0.216,0.215,0.125,0.079,�k,3.3,��
2023/02/06,17:00,0.156,0.142,0.219,0.217,0.215,0.125,0.079,�k,2.5,��
2023/02/06,17:10,0.155,0.142,0.219,0.214,0.215,0.124,0.080,�k�k��,2.0,��
2023/02/06,17:20,0.157,0.141,0.220,0.217,0.215,0.125,0.079,�k��,2.0,��
2023/02/06,17:30,0.156,0.141,0.220,0.217,0.215,0.125,0.079,�k��,2.1,��
2023/02/06,17:40,0.157,0.142,0.220,0.216,0.215,0.125,0.079,�k��,3.1,��
2023/02/06,17:50,0.156,0.142,0.220,0.216,0.214,0.125,0.079,�k��,3.5,��
2023/02/06,18:00,0.156,0.142,0.219,0.216,0.215,0.124,0.078,���k��,6.7,��
2023/02/06,18:10,0.156,0.142,0.219,0.216,0.215,0.124,0.079,�k��,6.8,��
2023/02/06,18:20,0.156,0.142,0.219,0.215,0.214,0.124,0.079,���k��,7.3,��
2023/02/06,18:30,0.156,0.142,0.221,0.215,0.214,0.124,0.078,���k��,4.6,��
2023/02/06,18:40,0.156,0.143,0.220,0.215,0.215,0.124,0.079,���k��,4.7,��
2023/02/06,18:50,0.157,0.142,0.220,0.216,0.213,0.124,0.078,���k��,6.4,��
2023/02/06,19:00,0.156,0.143,0.220,0.216,0.214,0.124,0.078,���k��,9.5,��
2023/02/06,19:10,0.157,0.142,0.219,0.215,0.214,0.124,0.079,���k��,10.4,��
2023/02/06,19:20,0.156,0.142,0.220,0.217,0.213,0.124,0.078,���k��,9.0,��
2023/02/06,19:30,0.156,0.143,0.219,0.216,0.213,0.125,0.079,���k��,9.0,��
2023/02/06,19:40,0.157,0.142,0.219,0.216,0.214,0.124,0.078,���k��,8.4,��
2023/02/06,19:50,0.157,0.143,0.221,0.216,0.213,0.125,0.079,���k��,8.3,��
2023/02/06,20:00,0.157,0.143,0.219,0.217,0.214,0.124,0.079,���k��,9.2,��
2023/02/06,20:10,0.157,0.142,0.220,0.216,0.213,0.124,0.078,���k��,8.1,��
2023/02/06,20:20,0.157,0.142,0.219,0.217,0.213,0.124,0.078,���k��,7.8,��
2023/02/06,20:30,0.158,0.142,0.220,0.215,0.214,0.125,0.079,���k��,8.1,��
2023/02/06,20:40,0.157,0.142,0.220,0.216,0.214,0.124,0.079,���k��,7.8,��
2023/02/06,20:50,0.156,0.142,0.220,0.216,0.213,0.124,0.079,���k��,6.5,��
2023/02/06,21:00,0.157,0.142,0.219,0.215,0.213,0.124,0.078,���k��,6.5,��
2023/02/06,21:10,0.156,0.142,0.219,0.216,0.213,0.125,0.078,���k��,5.7,��
2023/02/06,21:20,0.156,0.142,0.219,0.215,0.213,0.124,0.079,��,2.5,��
2023/02/06,21:30,0.157,0.141,0.219,0.215,0.213,0.124,0.079,���k��,3.9,��
2023/02/06,21:40,0.157,0.142,0.220,0.215,0.214,0.124,0.078,��,5.6,��
2023/02/06,21:50,0.156,0.142,0.220,0.215,0.214,0.124,0.078,��,8.5,��
2023/02/06,22:00,0.156,0.142,0.219,0.216,0.213,0.124,0.079,��,8.1,��
2023/02/06,22:10,0.157,0.141,0.220,0.216,0.214,0.124,0.079,���k��,9.2,��
2023/02/06,22:20,0.156,0.142,0.220,0.216,0.214,0.125,0.078,��,10.7,��
2023/02/06,22:30,0.156,0.141,0.219,0.215,0.214,0.125,0.078,���k��,10.3,��
2023/02/06,22:40,0.156,0.141,0.221,0.215,0.214,0.125,0.078,���k��,8.4,��
2023/02/06,22:50,0.157,0.143,0.221,0.217,0.215,0.124,0.078,���k��,8.8,��
2023/02/06,23:00,0.156,0.142,0.218,0.216,0.214,0.124,0.079,��,8.2,��
2023/02/06,23:10,0.157,0.142,0.220,0.216,0.214,0.124,0.079,��,7.4,��
2023/02/06,23:20,0.156,0.142,0.220,0.217,0.215,0.124,0.079,��,7.1,��
2023/02/06,23:30,0.156,0.143,0.221,0.216,0.214,0.125,0.079,��,7.9,��
2023/02/06,23:40,0.156,0.141,0.221,0.215,0.215,0.125,0.079,��,8.4,��
2023/02/06,23:50,0.155,0.142,0.219,0.216,0.213,0.125,0.080,��,7.6,��
